Year,Month,Day,Hour,Minute,Value (Times are PST for temperature in C)
2018,06,18,00,00,18.00
2018,06,18,00,01,18.10
2018,06,18,00,02,18.10
2018,06,18,00,03,18.10
2018,06,18,00,04,18.10
2018,06,18,00,05,18.10
2018,06,18,00,06,18.10
2018,06,18,00,07,18.10
2018,06,18,00,08,18.10
2018,06,18,00,09,18.10
2018,06,18,00,10,18.10
2018,06,18,00,11,18.10
2018,06,18,00,12,18.10
2018,06,18,00,13,18.10
2018,06,18,00,14,18.10
2018,06,18,00,15,18.10
2018,06,18,00,16,18.10
2018,06,18,00,17,18.10
2018,06,18,00,18,18.10
2018,06,18,00,19,18.10
2018,06,18,00,20,18.10
2018,06,18,00,21,18.10
2018,06,18,00,22,18.00
2018,06,18,00,23,18.00
2018,06,18,00,24,18.00
2018,06,18,00,25,18.00
2018,06,18,00,26,18.00
2018,06,18,00,27,18.00
2018,06,18,00,28,17.90
2018,06,18,00,29,17.90
2018,06,18,00,30,17.90
2018,06,18,00,31,17.90
2018,06,18,00,32,17.90
2018,06,18,00,33,17.90
2018,06,18,00,34,17.90
2018,06,18,00,35,17.90
2018,06,18,00,36,17.90
2018,06,18,00,37,17.90
2018,06,18,00,38,17.90
2018,06,18,00,39,17.90
2018,06,18,00,40,17.90
2018,06,18,00,41,17.90
2018,06,18,00,42,17.90
2018,06,18,00,43,17.90
2018,06,18,00,44,17.80
2018,06,18,00,45,17.80
2018,06,18,00,46,17.80
2018,06,18,00,47,17.80
2018,06,18,00,48,17.80
2018,06,18,00,49,17.80
2018,06,18,00,50,17.80
2018,06,18,00,51,17.80
2018,06,18,00,52,17.80
2018,06,18,00,53,17.80
2018,06,18,00,54,17.80
2018,06,18,00,55,17.80
2018,06,18,00,56,17.80
2018,06,18,00,57,17.80
2018,06,18,00,58,17.80
2018,06,18,00,59,17.80
2018,06,18,01,00,17.80
2018,06,18,01,01,17.80
2018,06,18,01,02,17.80
2018,06,18,01,03,17.80
2018,06,18,01,04,17.80
2018,06,18,01,05,17.80
2018,06,18,01,06,17.80
2018,06,18,01,07,17.70
2018,06,18,01,08,17.70
2018,06,18,01,09,17.70
2018,06,18,01,10,17.70
2018,06,18,01,11,17.70
2018,06,18,01,12,17.70
2018,06,18,01,13,17.70
2018,06,18,01,14,17.70
2018,06,18,01,15,17.70
2018,06,18,01,16,17.70
2018,06,18,01,17,17.70
2018,06,18,01,18,17.70
2018,06,18,01,19,17.60
2018,06,18,01,20,17.60
2018,06,18,01,21,17.60
2018,06,18,01,22,17.60
2018,06,18,01,23,17.60
2018,06,18,01,24,17.60
2018,06,18,01,25,17.60
2018,06,18,01,26,17.60
2018,06,18,01,27,17.60
2018,06,18,01,28,17.60
2018,06,18,01,29,17.60
2018,06,18,01,30,17.60
2018,06,18,01,31,17.60
2018,06,18,01,32,17.60
2018,06,18,01,33,17.60
2018,06,18,01,34,17.60
2018,06,18,01,35,17.60
2018,06,18,01,36,17.60
2018,06,18,01,37,17.60
2018,06,18,01,38,17.60
2018,06,18,01,39,17.60
2018,06,18,01,40,17.60
2018,06,18,01,41,17.60
2018,06,18,01,42,17.60
2018,06,18,01,43,17.60
2018,06,18,01,44,17.60
2018,06,18,01,45,17.60
2018,06,18,01,46,17.60
2018,06,18,01,47,17.60
2018,06,18,01,48,17.60
2018,06,18,01,49,17.60
2018,06,18,01,50,17.60
2018,06,18,01,51,17.60
2018,06,18,01,52,17.60
2018,06,18,01,53,17.50
2018,06,18,01,54,17.50
2018,06,18,01,55,17.50
2018,06,18,01,56,17.50
2018,06,18,01,57,17.50
2018,06,18,01,58,17.50
2018,06,18,01,59,17.50
2018,06,18,02,00,17.50
2018,06,18,02,01,17.50
2018,06,18,02,02,17.50
2018,06,18,02,03,17.40
2018,06,18,02,04,17.40
2018,06,18,02,05,17.40
2018,06,18,02,06,17.40
2018,06,18,02,07,17.40
2018,06,18,02,08,17.40
2018,06,18,02,09,17.40
2018,06,18,02,10,17.40
2018,06,18,02,11,17.40
2018,06,18,02,12,17.40
2018,06,18,02,13,17.40
2018,06,18,02,14,17.40
2018,06,18,02,15,17.40
2018,06,18,02,16,17.40
2018,06,18,02,17,17.30
2018,06,18,02,18,17.30
2018,06,18,02,19,17.30
2018,06,18,02,20,17.30
2018,06,18,02,21,17.20
2018,06,18,02,22,17.20
2018,06,18,02,23,17.20
2018,06,18,02,24,17.20
2018,06,18,02,25,17.10
2018,06,18,02,26,17.10
2018,06,18,02,27,17.10
2018,06,18,02,28,17.10
2018,06,18,02,29,17.00
2018,06,18,02,30,17.00
2018,06,18,02,31,17.00
2018,06,18,02,32,17.00
2018,06,18,02,33,16.90
2018,06,18,02,34,16.90
2018,06,18,02,35,16.90
2018,06,18,02,36,16.90
2018,06,18,02,37,16.90
2018,06,18,02,38,16.80
2018,06,18,02,39,16.80
2018,06,18,02,40,16.80
2018,06,18,02,41,16.80
2018,06,18,02,42,16.80
2018,06,18,02,43,16.70
2018,06,18,02,44,16.70
2018,06,18,02,45,16.70
2018,06,18,02,46,16.70
2018,06,18,02,47,16.70
2018,06,18,02,48,16.70
2018,06,18,02,49,16.70
2018,06,18,02,50,16.70
2018,06,18,02,51,16.70
2018,06,18,02,52,16.60
2018,06,18,02,53,16.60
2018,06,18,02,54,16.60
2018,06,18,02,55,16.60
2018,06,18,02,56,16.60
2018,06,18,02,57,16.50
2018,06,18,02,58,16.50
2018,06,18,02,59,16.50
2018,06,18,03,00,16.50
2018,06,18,03,01,16.50
2018,06,18,03,02,16.50
2018,06,18,03,03,16.50
2018,06,18,03,04,16.50
2018,06,18,03,05,16.40
2018,06,18,03,06,16.40
2018,06,18,03,07,16.40
2018,06,18,03,08,16.50
2018,06,18,03,09,16.50
2018,06,18,03,10,16.40
2018,06,18,03,11,16.40
2018,06,18,03,12,16.40
2018,06,18,03,13,16.40
2018,06,18,03,14,16.40
2018,06,18,03,15,16.40
2018,06,18,03,16,16.40
2018,06,18,03,17,16.40
2018,06,18,03,18,16.40
2018,06,18,03,19,16.40
2018,06,18,03,20,16.30
2018,06,18,03,21,16.30
2018,06,18,03,22,16.30
2018,06,18,03,23,16.30
2018,06,18,03,24,16.30
2018,06,18,03,25,16.30
2018,06,18,03,26,16.30
2018,06,18,03,27,16.20
2018,06,18,03,28,16.20
2018,06,18,03,29,16.20
2018,06,18,03,30,16.20
2018,06,18,03,31,16.20
2018,06,18,03,32,16.10
2018,06,18,03,33,16.10
2018,06,18,03,34,16.10
2018,06,18,03,35,16.10
2018,06,18,03,36,16.10
2018,06,18,03,37,16.10
2018,06,18,03,38,16.00
2018,06,18,03,39,16.00
2018,06,18,03,40,16.00
2018,06,18,03,41,16.00
2018,06,18,03,42,16.00
2018,06,18,03,43,15.90
2018,06,18,03,44,15.90
2018,06,18,03,45,15.90
2018,06,18,03,46,15.90
2018,06,18,03,47,15.90
2018,06,18,03,48,15.90
2018,06,18,03,49,15.90
2018,06,18,03,50,15.90
2018,06,18,03,51,15.90
2018,06,18,03,52,15.90
2018,06,18,03,53,15.90
2018,06,18,03,54,15.90
2018,06,18,03,55,15.90
2018,06,18,03,56,15.90
2018,06,18,03,57,15.90
2018,06,18,03,58,15.90
2018,06,18,03,59,15.80
2018,06,18,04,00,15.80
2018,06,18,04,01,15.80
2018,06,18,04,02,15.80
2018,06,18,04,03,15.80
2018,06,18,04,04,15.80
2018,06,18,04,05,15.80
2018,06,18,04,06,15.80
2018,06,18,04,07,15.80
2018,06,18,04,08,15.80
2018,06,18,04,09,15.80
2018,06,18,04,10,15.80
2018,06,18,04,11,15.80
2018,06,18,04,12,15.80
2018,06,18,04,13,15.80
2018,06,18,04,14,15.80
2018,06,18,04,15,15.80
2018,06,18,04,16,15.80
2018,06,18,04,17,15.70
2018,06,18,04,18,15.70
2018,06,18,04,19,15.70
2018,06,18,04,20,15.70
2018,06,18,04,21,15.70
2018,06,18,04,22,15.70
2018,06,18,04,23,15.70
2018,06,18,04,24,15.60
2018,06,18,04,25,15.60
2018,06,18,04,26,15.60
2018,06,18,04,27,15.60
2018,06,18,04,28,15.60
2018,06,18,04,29,15.60
2018,06,18,04,30,15.50
2018,06,18,04,31,15.50
2018,06,18,04,32,15.50
2018,06,18,04,33,15.40
2018,06,18,04,34,15.40
2018,06,18,04,35,15.40
2018,06,18,04,36,15.30
2018,06,18,04,37,15.30
2018,06,18,04,38,15.30
2018,06,18,04,39,15.30
2018,06,18,04,40,15.20
2018,06,18,04,41,15.20
2018,06,18,04,42,15.20
2018,06,18,04,43,15.20
2018,06,18,04,44,15.20
2018,06,18,04,45,15.20
2018,06,18,04,46,15.20
2018,06,18,04,47,15.10
2018,06,18,04,48,15.10
2018,06,18,04,49,15.10
2018,06,18,04,50,15.10
2018,06,18,04,51,15.10
2018,06,18,04,52,15.10
2018,06,18,04,53,15.00
2018,06,18,04,54,15.00
2018,06,18,04,55,15.00
2018,06,18,04,56,15.00
2018,06,18,04,57,15.00
2018,06,18,04,58,14.90
2018,06,18,04,59,14.90
2018,06,18,05,00,14.90
2018,06,18,05,01,14.90
2018,06,18,05,02,14.90
2018,06,18,05,03,14.90
2018,06,18,05,04,14.90
2018,06,18,05,05,14.90
2018,06,18,05,06,14.80
2018,06,18,05,07,14.80
2018,06,18,05,08,14.80
2018,06,18,05,09,14.80
2018,06,18,05,10,14.80
2018,06,18,05,11,14.80
2018,06,18,05,12,14.80
2018,06,18,05,13,14.70
2018,06,18,05,14,14.80
2018,06,18,05,15,14.80
2018,06,18,05,16,14.70
2018,06,18,05,17,14.70
2018,06,18,05,18,14.70
2018,06,18,05,19,14.70
2018,06,18,05,20,14.70
2018,06,18,05,21,14.70
2018,06,18,05,22,14.70
2018,06,18,05,23,14.70
2018,06,18,05,24,14.70
2018,06,18,05,25,14.70
2018,06,18,05,26,14.60
2018,06,18,05,27,14.60
2018,06,18,05,28,14.60
2018,06,18,05,29,14.60
2018,06,18,05,30,14.60
2018,06,18,05,31,14.60
2018,06,18,05,32,14.60
2018,06,18,05,33,14.60
2018,06,18,05,34,14.60
2018,06,18,05,35,14.70
2018,06,18,05,36,14.70
2018,06,18,05,37,14.70
2018,06,18,05,38,14.70
2018,06,18,05,39,14.70
2018,06,18,05,40,14.70
2018,06,18,05,41,14.70
2018,06,18,05,42,14.70
2018,06,18,05,43,14.70
2018,06,18,05,44,14.70
2018,06,18,05,45,14.60
2018,06,18,05,46,14.60
2018,06,18,05,47,14.60
2018,06,18,05,48,14.60
2018,06,18,05,49,14.60
2018,06,18,05,50,14.60
2018,06,18,05,51,14.60
2018,06,18,05,52,14.60
2018,06,18,05,53,14.60
2018,06,18,05,54,14.60
2018,06,18,05,55,14.60
2018,06,18,05,56,14.60
2018,06,18,05,57,14.60
2018,06,18,05,58,14.60
2018,06,18,05,59,14.60
2018,06,18,06,00,14.60
2018,06,18,06,01,14.60
2018,06,18,06,02,14.60
2018,06,18,06,03,14.60
2018,06,18,06,04,14.50
2018,06,18,06,05,14.50
2018,06,18,06,06,14.50
2018,06,18,06,07,14.50
2018,06,18,06,08,14.50
2018,06,18,06,09,14.50
2018,06,18,06,10,14.50
2018,06,18,06,11,14.50
2018,06,18,06,12,14.50
2018,06,18,06,13,14.60
2018,06,18,06,14,14.60
2018,06,18,06,15,14.60
2018,06,18,06,16,14.60
2018,06,18,06,17,14.70
2018,06,18,06,18,14.70
2018,06,18,06,19,14.80
2018,06,18,06,20,14.80
2018,06,18,06,21,14.90
2018,06,18,06,22,14.90
2018,06,18,06,23,14.90
2018,06,18,06,24,14.90
2018,06,18,06,25,14.90
2018,06,18,06,26,15.00
2018,06,18,06,27,15.00
2018,06,18,06,28,15.00
2018,06,18,06,29,15.00
2018,06,18,06,30,15.00
2018,06,18,06,31,15.10
2018,06,18,06,32,15.10
2018,06,18,06,33,15.10
2018,06,18,06,34,15.10
2018,06,18,06,35,15.20
2018,06,18,06,36,15.20
2018,06,18,06,37,15.20
2018,06,18,06,38,15.20
2018,06,18,06,39,15.30
2018,06,18,06,40,15.30
2018,06,18,06,41,15.30
2018,06,18,06,42,15.30
2018,06,18,06,43,15.30
2018,06,18,06,44,15.40
2018,06,18,06,45,15.40
2018,06,18,06,46,15.40
2018,06,18,06,47,15.40
2018,06,18,06,48,15.40
2018,06,18,06,49,15.50
2018,06,18,06,50,15.50
2018,06,18,06,51,15.50
2018,06,18,06,52,15.60
2018,06,18,06,53,15.60
2018,06,18,06,54,15.60
2018,06,18,06,55,15.60
2018,06,18,06,56,15.60
2018,06,18,06,57,15.60
2018,06,18,06,58,15.60
2018,06,18,06,59,15.70
2018,06,18,07,00,15.70
2018,06,18,07,01,15.70
2018,06,18,07,02,15.70
2018,06,18,07,03,15.70
2018,06,18,07,04,15.80
2018,06,18,07,05,15.80
2018,06,18,07,06,15.80
2018,06,18,07,07,15.90
2018,06,18,07,08,16.00
2018,06,18,07,09,16.00
2018,06,18,07,10,16.10
2018,06,18,07,11,16.10
2018,06,18,07,12,16.10
2018,06,18,07,13,16.20
2018,06,18,07,14,16.20
2018,06,18,07,15,16.20
2018,06,18,07,16,16.30
2018,06,18,07,17,16.30
2018,06,18,07,18,16.40
2018,06,18,07,19,16.40
2018,06,18,07,20,16.40
2018,06,18,07,21,16.50
2018,06,18,07,22,16.60
2018,06,18,07,23,16.60
2018,06,18,07,24,16.60
2018,06,18,07,25,16.70
2018,06,18,07,26,16.70
2018,06,18,07,27,16.70
2018,06,18,07,28,16.70
2018,06,18,07,29,16.80
2018,06,18,07,30,16.80
2018,06,18,07,31,16.80
2018,06,18,07,32,16.90
2018,06,18,07,33,16.90
2018,06,18,07,34,17.00
2018,06,18,07,35,17.00
2018,06,18,07,36,17.10
2018,06,18,07,37,17.10
2018,06,18,07,38,17.10
2018,06,18,07,39,17.10
2018,06,18,07,40,17.20
2018,06,18,07,41,17.20
2018,06,18,07,42,17.30
2018,06,18,07,43,17.30
2018,06,18,07,44,17.40
2018,06,18,07,45,17.50
2018,06,18,07,46,17.60
2018,06,18,07,47,17.70
2018,06,18,07,48,17.80
2018,06,18,07,49,17.90
2018,06,18,07,50,18.00
2018,06,18,07,51,18.00
2018,06,18,07,52,18.10
2018,06,18,07,53,18.20
2018,06,18,07,54,18.30
2018,06,18,07,55,18.50
2018,06,18,07,56,18.60
2018,06,18,07,57,18.80
2018,06,18,07,58,18.90
2018,06,18,07,59,19.10
2018,06,18,08,00,19.20
2018,06,18,08,01,19.40
2018,06,18,08,02,19.50
2018,06,18,08,03,19.60
2018,06,18,08,04,19.60
2018,06,18,08,05,19.70
2018,06,18,08,06,19.80
2018,06,18,08,07,19.90
2018,06,18,08,08,20.00
2018,06,18,08,09,20.10
2018,06,18,08,10,20.20
2018,06,18,08,11,20.30
2018,06,18,08,12,20.40
2018,06,18,08,13,20.50
2018,06,18,08,14,20.50
2018,06,18,08,15,20.60
2018,06,18,08,16,20.70
2018,06,18,08,17,20.70
2018,06,18,08,18,20.80
2018,06,18,08,19,20.80
2018,06,18,08,20,20.90
2018,06,18,08,21,21.00
2018,06,18,08,22,21.10
2018,06,18,08,23,21.20
2018,06,18,08,24,21.30
2018,06,18,08,25,21.50
2018,06,18,08,26,21.60
2018,06,18,08,27,21.70
2018,06,18,08,28,21.90
2018,06,18,08,29,22.00
2018,06,18,08,30,22.10
2018,06,18,08,31,22.30
2018,06,18,08,32,22.40
2018,06,18,08,33,22.60
2018,06,18,08,34,22.70
2018,06,18,08,35,22.80
2018,06,18,08,36,22.90
2018,06,18,08,37,23.10
2018,06,18,08,38,23.20
2018,06,18,08,39,23.30
2018,06,18,08,40,23.50
2018,06,18,08,41,23.60
2018,06,18,08,42,23.70
2018,06,18,08,43,23.80
2018,06,18,08,44,23.90
2018,06,18,08,45,24.00
2018,06,18,08,46,24.10
2018,06,18,08,47,24.20
2018,06,18,08,48,24.30
2018,06,18,08,49,24.40
2018,06,18,08,50,24.50
2018,06,18,08,51,24.60
2018,06,18,08,52,24.70
2018,06,18,08,53,24.80
2018,06,18,08,54,24.80
2018,06,18,08,55,24.90
2018,06,18,08,56,24.90
2018,06,18,08,57,25.00
2018,06,18,08,58,25.00
2018,06,18,08,59,25.10
2018,06,18,09,00,25.10
2018,06,18,09,01,25.10
2018,06,18,09,02,25.10
2018,06,18,09,03,25.20
2018,06,18,09,04,25.20
2018,06,18,09,05,25.20
2018,06,18,09,06,25.30
2018,06,18,09,07,25.30
2018,06,18,09,08,25.40
2018,06,18,09,09,25.40
2018,06,18,09,10,25.50
2018,06,18,09,11,25.50
2018,06,18,09,12,25.50
2018,06,18,09,13,25.50
2018,06,18,09,14,25.50
2018,06,18,09,15,25.50
2018,06,18,09,16,25.60
2018,06,18,09,17,25.60
2018,06,18,09,18,25.70
2018,06,18,09,19,25.80
2018,06,18,09,20,25.80
2018,06,18,09,21,25.80
2018,06,18,09,22,25.90
2018,06,18,09,23,25.90
2018,06,18,09,24,25.90
2018,06,18,09,25,26.00
2018,06,18,09,26,26.00
2018,06,18,09,27,26.00
2018,06,18,09,28,26.10
2018,06,18,09,29,26.10
2018,06,18,09,30,26.20
2018,06,18,09,31,26.20
2018,06,18,09,32,26.30
2018,06,18,09,33,26.40
2018,06,18,09,34,26.40
2018,06,18,09,35,26.50
2018,06,18,09,36,26.60
2018,06,18,09,37,26.70
2018,06,18,09,38,26.70
2018,06,18,09,39,26.70
2018,06,18,09,40,26.70
2018,06,18,09,41,26.80
2018,06,18,09,42,26.80
2018,06,18,09,43,26.90
2018,06,18,09,44,26.90
2018,06,18,09,45,26.90
2018,06,18,09,46,27.00
2018,06,18,09,47,27.00
2018,06,18,09,48,27.00
2018,06,18,09,49,27.10
2018,06,18,09,50,27.10
2018,06,18,09,51,27.10
2018,06,18,09,52,27.10
2018,06,18,09,53,27.20
2018,06,18,09,54,27.30
2018,06,18,09,55,27.30
2018,06,18,09,56,27.50
2018,06,18,09,57,27.50
2018,06,18,09,58,27.60
2018,06,18,09,59,27.70
2018,06,18,10,00,27.70
2018,06,18,10,01,27.70
2018,06,18,10,02,27.70
2018,06,18,10,03,27.70
2018,06,18,10,04,27.80
2018,06,18,10,05,27.90
2018,06,18,10,06,28.00
2018,06,18,10,07,28.10
2018,06,18,10,08,28.00
2018,06,18,10,09,28.00
2018,06,18,10,10,28.00
2018,06,18,10,11,28.00
2018,06,18,10,12,28.10
2018,06,18,10,13,28.20
2018,06,18,10,14,28.30
2018,06,18,10,15,28.30
2018,06,18,10,16,28.40
2018,06,18,10,17,28.50
2018,06,18,10,18,28.60
2018,06,18,10,19,28.60
2018,06,18,10,20,28.60
2018,06,18,10,21,28.50
2018,06,18,10,22,28.40
2018,06,18,10,23,28.30
2018,06,18,10,24,28.20
2018,06,18,10,25,28.20
2018,06,18,10,26,28.20
2018,06,18,10,27,28.30
2018,06,18,10,28,28.30
2018,06,18,10,29,28.30
2018,06,18,10,30,28.40
2018,06,18,10,31,28.40
2018,06,18,10,32,28.40
2018,06,18,10,33,28.40
2018,06,18,10,34,28.50
2018,06,18,10,35,28.60
2018,06,18,10,36,28.60
2018,06,18,10,37,28.60
2018,06,18,10,38,28.60
2018,06,18,10,39,28.60
2018,06,18,10,40,28.60
2018,06,18,10,41,28.50
2018,06,18,10,42,28.40
2018,06,18,10,43,28.50
2018,06,18,10,44,28.50
2018,06,18,10,45,28.70
2018,06,18,10,46,28.80
2018,06,18,10,47,28.80
2018,06,18,10,48,28.80
2018,06,18,10,49,28.80
2018,06,18,10,50,28.80
2018,06,18,10,51,28.90
2018,06,18,10,52,28.90
2018,06,18,10,53,28.90
2018,06,18,10,54,29.00
2018,06,18,10,55,29.00
2018,06,18,10,56,29.10
2018,06,18,10,57,29.30
2018,06,18,10,58,29.40
2018,06,18,10,59,29.50
2018,06,18,11,00,29.60
2018,06,18,11,01,29.60
2018,06,18,11,02,29.60
2018,06,18,11,03,29.60
2018,06,18,11,04,29.50
2018,06,18,11,05,29.60
2018,06,18,11,06,29.60
2018,06,18,11,07,29.70
2018,06,18,11,08,29.70
2018,06,18,11,09,29.70
2018,06,18,11,10,29.70
2018,06,18,11,11,29.70
2018,06,18,11,12,29.70
2018,06,18,11,13,29.80
2018,06,18,11,14,29.70
2018,06,18,11,15,29.70
2018,06,18,11,16,29.60
2018,06,18,11,17,29.60
2018,06,18,11,18,29.60
2018,06,18,11,19,29.70
2018,06,18,11,20,29.60
2018,06,18,11,21,29.60
2018,06,18,11,22,29.60
2018,06,18,11,23,29.70
2018,06,18,11,24,29.70
2018,06,18,11,25,29.60
2018,06,18,11,26,29.60
2018,06,18,11,27,29.60
2018,06,18,11,28,29.60
2018,06,18,11,29,29.60
2018,06,18,11,30,29.50
2018,06,18,11,31,29.50
2018,06,18,11,32,29.50
2018,06,18,11,33,29.50
2018,06,18,11,34,29.50
2018,06,18,11,35,29.60
2018,06,18,11,36,29.70
2018,06,18,11,37,29.70
2018,06,18,11,38,29.70
2018,06,18,11,39,29.70
2018,06,18,11,40,29.60
2018,06,18,11,41,29.60
2018,06,18,11,42,29.70
2018,06,18,11,43,29.70
2018,06,18,11,44,29.80
2018,06,18,11,45,29.80
2018,06,18,11,46,29.90
2018,06,18,11,47,29.90
2018,06,18,11,48,29.90
2018,06,18,11,49,29.90
2018,06,18,11,50,29.90
2018,06,18,11,51,29.80
2018,06,18,11,52,29.70
2018,06,18,11,53,29.80
2018,06,18,11,54,29.80
2018,06,18,11,55,29.80
2018,06,18,11,56,29.90
2018,06,18,11,57,30.00
2018,06,18,11,58,30.00
2018,06,18,11,59,29.90
2018,06,18,12,00,29.80
2018,06,18,12,01,29.80
2018,06,18,12,02,29.70
2018,06,18,12,03,29.70
2018,06,18,12,04,29.70
2018,06,18,12,05,29.80
2018,06,18,12,06,29.90
2018,06,18,12,07,30.00
2018,06,18,12,08,30.00
2018,06,18,12,09,30.10
2018,06,18,12,10,30.10
2018,06,18,12,11,30.10
2018,06,18,12,12,30.10
2018,06,18,12,13,30.10
2018,06,18,12,14,30.00
2018,06,18,12,15,29.90
2018,06,18,12,16,29.90
2018,06,18,12,17,29.90
2018,06,18,12,18,29.90
2018,06,18,12,19,30.00
2018,06,18,12,20,30.10
2018,06,18,12,21,30.10
2018,06,18,12,22,30.10
2018,06,18,12,23,30.10
2018,06,18,12,24,30.00
2018,06,18,12,25,30.00
2018,06,18,12,26,30.00
2018,06,18,12,27,29.90
2018,06,18,12,28,29.80
2018,06,18,12,29,29.80
2018,06,18,12,30,29.90
2018,06,18,12,31,29.90
2018,06,18,12,32,30.00
2018,06,18,12,33,30.00
2018,06,18,12,34,30.10
2018,06,18,12,35,30.10
2018,06,18,12,36,30.20
2018,06,18,12,37,30.40
2018,06,18,12,38,30.50
2018,06,18,12,39,30.50
2018,06,18,12,40,30.40
2018,06,18,12,41,30.20
2018,06,18,12,42,30.10
2018,06,18,12,43,29.90
2018,06,18,12,44,29.90
2018,06,18,12,45,29.80
2018,06,18,12,46,29.80
2018,06,18,12,47,29.80
2018,06,18,12,48,29.90
2018,06,18,12,49,30.00
2018,06,18,12,50,30.10
2018,06,18,12,51,30.10
2018,06,18,12,52,30.00
2018,06,18,12,53,29.80
2018,06,18,12,54,29.60
2018,06,18,12,55,29.50
2018,06,18,12,56,29.40
2018,06,18,12,57,29.30
2018,06,18,12,58,29.30
2018,06,18,12,59,29.30
2018,06,18,13,00,29.20
2018,06,18,13,01,29.20
2018,06,18,13,02,29.20
2018,06,18,13,03,29.20
2018,06,18,13,04,29.20
2018,06,18,13,05,29.20
2018,06,18,13,06,29.20
2018,06,18,13,07,29.10
2018,06,18,13,08,29.10
2018,06,18,13,09,29.10
2018,06,18,13,10,29.10
2018,06,18,13,11,29.10
2018,06,18,13,12,29.00
2018,06,18,13,13,29.00
2018,06,18,13,14,28.90
2018,06,18,13,15,28.90
2018,06,18,13,16,28.90
2018,06,18,13,17,28.90
2018,06,18,13,18,28.90
2018,06,18,13,19,28.90
2018,06,18,13,20,28.90
2018,06,18,13,21,28.80
2018,06,18,13,22,28.50
2018,06,18,13,23,28.30
2018,06,18,13,24,28.10
2018,06,18,13,25,28.00
2018,06,18,13,26,27.90
2018,06,18,13,27,27.90
2018,06,18,13,28,27.90
2018,06,18,13,29,27.90
2018,06,18,13,30,27.90
2018,06,18,13,31,27.90
2018,06,18,13,32,28.00
2018,06,18,13,33,28.10
2018,06,18,13,34,28.10
2018,06,18,13,35,28.20
2018,06,18,13,36,28.30
2018,06,18,13,37,28.40
2018,06,18,13,38,28.60
2018,06,18,13,39,28.70
2018,06,18,13,40,28.80
2018,06,18,13,41,28.80
2018,06,18,13,42,28.90
2018,06,18,13,43,29.00
2018,06,18,13,44,29.00
2018,06,18,13,45,29.10
2018,06,18,13,46,29.20
2018,06,18,13,47,29.30
2018,06,18,13,48,29.40
2018,06,18,13,49,29.50
2018,06,18,13,50,29.70
2018,06,18,13,51,29.90
2018,06,18,13,52,30.10
2018,06,18,13,53,30.20
2018,06,18,13,54,30.30
2018,06,18,13,55,30.30
2018,06,18,13,56,30.30
2018,06,18,13,57,30.20
2018,06,18,13,58,30.10
2018,06,18,13,59,30.10
2018,06,18,14,00,30.00
2018,06,18,14,01,29.90
2018,06,18,14,02,29.80
2018,06,18,14,03,29.80
2018,06,18,14,04,29.80
2018,06,18,14,05,29.90
2018,06,18,14,06,30.00
2018,06,18,14,07,30.10
2018,06,18,14,08,30.20
2018,06,18,14,09,30.40
2018,06,18,14,10,30.50
2018,06,18,14,11,30.60
2018,06,18,14,12,30.70
2018,06,18,14,13,30.80
2018,06,18,14,14,30.80
2018,06,18,14,15,31.00
2018,06,18,14,16,31.00
2018,06,18,14,17,31.10
2018,06,18,14,18,31.30
2018,06,18,14,19,31.40
2018,06,18,14,20,31.50
2018,06,18,14,21,31.70
2018,06,18,14,22,31.70
2018,06,18,14,23,31.70
2018,06,18,14,24,31.80
2018,06,18,14,25,31.80
2018,06,18,14,26,31.90
2018,06,18,14,27,31.90
2018,06,18,14,28,31.90
2018,06,18,14,29,31.90
2018,06,18,14,30,31.90
2018,06,18,14,31,31.90
2018,06,18,14,32,31.90
2018,06,18,14,33,31.90
2018,06,18,14,34,31.90
2018,06,18,14,35,31.90
2018,06,18,14,36,31.90
2018,06,18,14,37,31.90
2018,06,18,14,38,31.90
2018,06,18,14,39,31.90
2018,06,18,14,40,31.90
2018,06,18,14,41,31.90
2018,06,18,14,42,31.80
2018,06,18,14,43,31.70
2018,06,18,14,44,31.70
2018,06,18,14,45,31.70
2018,06,18,14,46,31.70
2018,06,18,14,47,31.70
2018,06,18,14,48,31.70
2018,06,18,14,49,31.70
2018,06,18,14,50,31.60
2018,06,18,14,51,31.60
2018,06,18,14,52,31.60
2018,06,18,14,53,31.60
2018,06,18,14,54,31.70
2018,06,18,14,55,31.70
2018,06,18,14,56,31.80
2018,06,18,14,57,31.90
2018,06,18,14,58,31.90
2018,06,18,14,59,31.90
2018,06,18,15,00,32.00
2018,06,18,15,01,32.00
2018,06,18,15,02,32.10
2018,06,18,15,03,32.20
2018,06,18,15,04,32.20
2018,06,18,15,05,32.30
2018,06,18,15,06,32.30
2018,06,18,15,07,32.40
2018,06,18,15,08,32.40
2018,06,18,15,09,32.50
2018,06,18,15,10,32.50
2018,06,18,15,11,32.50
2018,06,18,15,12,32.50
2018,06,18,15,13,32.40
2018,06,18,15,14,32.30
2018,06,18,15,15,32.30
2018,06,18,15,16,32.30
2018,06,18,15,17,32.30
2018,06,18,15,18,32.30
2018,06,18,15,19,32.30
2018,06,18,15,20,32.40
2018,06,18,15,21,32.30
2018,06,18,15,22,32.30
2018,06,18,15,23,32.30
2018,06,18,15,24,32.30
2018,06,18,15,25,32.30
2018,06,18,15,26,32.30
2018,06,18,15,27,32.20
2018,06,18,15,28,32.20
2018,06,18,15,29,32.20
2018,06,18,15,30,32.10
2018,06,18,15,31,32.10
2018,06,18,15,32,32.20
2018,06,18,15,33,32.20
2018,06,18,15,34,32.20
2018,06,18,15,35,32.20
2018,06,18,15,36,32.10
2018,06,18,15,37,32.00
2018,06,18,15,38,31.90
2018,06,18,15,39,31.80
2018,06,18,15,40,31.70
2018,06,18,15,41,31.60
2018,06,18,15,42,31.50
2018,06,18,15,43,31.40
2018,06,18,15,44,31.30
2018,06,18,15,45,31.20
2018,06,18,15,46,31.10
2018,06,18,15,47,31.00
2018,06,18,15,48,30.90
2018,06,18,15,49,30.90
2018,06,18,15,50,30.80
2018,06,18,15,51,30.80
2018,06,18,15,52,30.70
2018,06,18,15,53,30.70
2018,06,18,15,54,30.70
2018,06,18,15,55,30.70
2018,06,18,15,56,30.70
2018,06,18,15,57,30.70
2018,06,18,15,58,30.70
2018,06,18,15,59,30.70
2018,06,18,16,00,30.70
2018,06,18,16,01,30.70
2018,06,18,16,02,30.70
2018,06,18,16,03,30.70
2018,06,18,16,04,30.70
2018,06,18,16,05,30.60
2018,06,18,16,06,30.60
2018,06,18,16,07,30.60
2018,06,18,16,08,30.60
2018,06,18,16,09,30.70
2018,06,18,16,10,30.70
2018,06,18,16,11,30.80
2018,06,18,16,12,30.80
2018,06,18,16,13,30.90
2018,06,18,16,14,30.90
2018,06,18,16,15,30.90
2018,06,18,16,16,31.00
2018,06,18,16,17,31.00
2018,06,18,16,18,31.10
2018,06,18,16,19,31.10
2018,06,18,16,20,31.10
2018,06,18,16,21,31.10
2018,06,18,16,22,31.20
2018,06,18,16,23,31.20
2018,06,18,16,24,31.20
2018,06,18,16,25,31.20
2018,06,18,16,26,31.20
2018,06,18,16,27,31.20
2018,06,18,16,28,31.30
2018,06,18,16,29,31.30
2018,06,18,16,30,31.30
2018,06,18,16,31,31.30
2018,06,18,16,32,31.30
2018,06,18,16,33,31.40
2018,06,18,16,34,31.40
2018,06,18,16,35,31.40
2018,06,18,16,36,31.40
2018,06,18,16,37,31.40
2018,06,18,16,38,31.50
2018,06,18,16,39,31.50
2018,06,18,16,40,31.50
2018,06,18,16,41,31.60
2018,06,18,16,42,31.60
2018,06,18,16,43,31.60
2018,06,18,16,44,31.60
2018,06,18,16,45,31.70
2018,06,18,16,46,31.70
2018,06,18,16,47,31.70
2018,06,18,16,48,31.80
2018,06,18,16,49,31.80
2018,06,18,16,50,31.80
2018,06,18,16,51,31.90
2018,06,18,16,52,31.90
2018,06,18,16,53,31.90
2018,06,18,16,54,31.90
2018,06,18,16,55,31.90
2018,06,18,16,56,31.90
2018,06,18,16,57,31.90
2018,06,18,16,58,31.90
2018,06,18,16,59,31.90
2018,06,18,17,00,31.90
2018,06,18,17,01,31.90
2018,06,18,17,02,31.90
2018,06,18,17,03,31.80
2018,06,18,17,04,31.80
2018,06,18,17,05,31.80
2018,06,18,17,06,31.80
2018,06,18,17,07,31.80
2018,06,18,17,08,31.80
2018,06,18,17,09,31.80
2018,06,18,17,10,31.80
2018,06,18,17,11,31.80
2018,06,18,17,12,31.80
2018,06,18,17,13,31.80
2018,06,18,17,14,31.80
2018,06,18,17,15,31.70
2018,06,18,17,16,31.70
2018,06,18,17,17,31.70
2018,06,18,17,18,31.70
2018,06,18,17,19,31.70